Location: Foulognes
(49.1413°N, 0.8183°W)
Time: 02:26:44
(UTC+00:00)

ATLAS 5 CENTAUR R/B - Pass Details

Date: 21 October 2019
Orbit: 563 x 1096 km, 63.3° (Epoch: 19 November)

Event Time Altitude Azimuth Distance (km) Brightness Sun altitude
Rises 18:27:55 0° 268° (W) 2,876 6.9 -14.7°
Reaches altitude 10° 18:30:27 10° 282° (WNW) 2,036 5.5 -15.1°
Maximum altitude 18:34:12 24° 337° (NNW) 1,421 3.7 -15.7°
Drops below altitude 10° 18:38:23 10° 31° (NNE) 2,287 4.2 -16.4°
Enters shadow 18:39:04 - 35° (NE) 2,511 4.4 -16.5°
